Location: Buckland
(65.9785°N, 161.1281°W)
Time: 14:13:09
(UTC+00:00)

Transit 4A - Pass Details

Date: 04 October 2022
Orbit: 871 x 972 km, 66.8° (Epoch: 29 November)

Event Time Altitude Azimuth Distance (km) Brightness Sun altitude
Exits shadow 10:46:00 58° 96° (E) 1,048 8.0 -28.4°
Drops below altitude 10° 10:50:52 10° 67° (ENE) 2,560 10.5 -28.4°
Sets 10:53:20 0° 65° (ENE) 3,491 11.3 -28.4°
